Year,Month,Day,Hour,Minute,Value (Times are PST for temperature in C)
2012,05,01,00,00,7.20
2012,05,01,00,01,7.20
2012,05,01,00,02,7.20
2012,05,01,00,03,7.20
2012,05,01,00,04,7.20
2012,05,01,00,05,7.20
2012,05,01,00,06,7.20
2012,05,01,00,07,7.20
2012,05,01,00,08,7.20
2012,05,01,00,09,7.20
2012,05,01,00,10,7.20
2012,05,01,00,11,7.10
2012,05,01,00,12,7.10
2012,05,01,00,13,7.10
2012,05,01,00,14,7.10
2012,05,01,00,15,7.10
2012,05,01,00,16,7.10
2012,05,01,00,17,7.10
2012,05,01,00,18,7.20
2012,05,01,00,19,7.20
2012,05,01,00,20,7.20
2012,05,01,00,21,7.20
2012,05,01,00,22,7.20
2012,05,01,00,23,7.20
2012,05,01,00,24,7.20
2012,05,01,00,25,7.20
2012,05,01,00,26,7.20
2012,05,01,00,27,7.20
2012,05,01,00,28,7.20
2012,05,01,00,29,7.20
2012,05,01,00,30,7.20
2012,05,01,00,31,7.20
2012,05,01,00,32,7.20
2012,05,01,00,33,7.20
2012,05,01,00,34,7.20
2012,05,01,00,35,7.20
2012,05,01,00,36,7.20
2012,05,01,00,37,7.20
2012,05,01,00,38,7.20
2012,05,01,00,39,7.20
2012,05,01,00,40,7.20
2012,05,01,00,41,7.20
2012,05,01,00,42,7.20
2012,05,01,00,43,7.20
2012,05,01,00,44,7.20
2012,05,01,00,45,7.20
2012,05,01,00,46,7.20
2012,05,01,00,47,7.20
2012,05,01,00,48,7.20
2012,05,01,00,49,7.20
2012,05,01,00,50,7.20
2012,05,01,00,51,7.20
2012,05,01,00,52,7.20
2012,05,01,00,53,7.20
2012,05,01,00,54,7.20
2012,05,01,00,55,7.20
2012,05,01,00,56,7.20
2012,05,01,00,57,7.20
2012,05,01,00,58,7.20
2012,05,01,00,59,7.20
2012,05,01,01,00,7.20
2012,05,01,01,01,7.20
2012,05,01,01,02,7.20
2012,05,01,01,03,7.20
2012,05,01,01,04,7.20
2012,05,01,01,05,7.20
2012,05,01,01,06,7.20
2012,05,01,01,07,7.10
2012,05,01,01,08,7.10
2012,05,01,01,09,7.10
2012,05,01,01,10,7.10
2012,05,01,01,11,7.10
2012,05,01,01,12,7.10
2012,05,01,01,13,7.10
2012,05,01,01,14,7.10
2012,05,01,01,15,7.10
2012,05,01,01,16,7.10
2012,05,01,01,17,7.10
2012,05,01,01,18,7.20
2012,05,01,01,19,7.10
2012,05,01,01,20,7.20
2012,05,01,01,21,7.10
2012,05,01,01,22,7.20
2012,05,01,01,23,7.20
2012,05,01,01,24,7.20
2012,05,01,01,25,7.20
2012,05,01,01,26,7.20
2012,05,01,01,27,7.20
2012,05,01,01,28,7.20
2012,05,01,01,29,7.20
2012,05,01,01,30,7.20
2012,05,01,01,31,7.20
2012,05,01,01,32,7.20
2012,05,01,01,33,7.20
2012,05,01,01,34,7.20
2012,05,01,01,35,7.20
2012,05,01,01,36,7.20
2012,05,01,01,37,7.20
2012,05,01,01,38,7.20
2012,05,01,01,39,7.20
2012,05,01,01,40,7.20
2012,05,01,01,41,7.20
2012,05,01,01,42,7.20
2012,05,01,01,43,7.20
2012,05,01,01,44,7.20
2012,05,01,01,45,7.10
2012,05,01,01,46,7.10
2012,05,01,01,47,7.10
2012,05,01,01,48,7.10
2012,05,01,01,49,7.20
2012,05,01,01,50,7.20
2012,05,01,01,51,7.20
2012,05,01,01,52,7.20
2012,05,01,01,53,7.20
2012,05,01,01,54,7.20
2012,05,01,01,55,7.20
2012,05,01,01,56,7.20
2012,05,01,01,57,7.20
2012,05,01,01,58,7.20
2012,05,01,01,59,7.20
2012,05,01,02,00,7.20
2012,05,01,02,01,7.20
2012,05,01,02,02,7.20
2012,05,01,02,03,7.20
2012,05,01,02,04,7.20
2012,05,01,02,05,7.20
2012,05,01,02,06,7.20
2012,05,01,02,07,7.20
2012,05,01,02,08,7.20
2012,05,01,02,09,7.20
2012,05,01,02,10,7.20
2012,05,01,02,11,7.20
2012,05,01,02,12,7.10
2012,05,01,02,13,7.10
2012,05,01,02,14,7.10
2012,05,01,02,15,7.10
2012,05,01,02,16,7.10
2012,05,01,02,17,7.10
2012,05,01,02,18,7.10
2012,05,01,02,19,7.10
2012,05,01,02,20,7.10
2012,05,01,02,21,7.10
2012,05,01,02,22,7.10
2012,05,01,02,23,7.10
2012,05,01,02,24,7.10
2012,05,01,02,25,7.00
2012,05,01,02,26,7.00
2012,05,01,02,27,7.00
2012,05,01,02,28,7.00
2012,05,01,02,29,7.00
2012,05,01,02,30,7.00
2012,05,01,02,31,7.00
2012,05,01,02,32,7.00
2012,05,01,02,33,7.00
2012,05,01,02,34,6.90
2012,05,01,02,35,6.90
2012,05,01,02,36,6.90
2012,05,01,02,37,6.90
2012,05,01,02,38,6.90
2012,05,01,02,39,6.90
2012,05,01,02,40,6.90
2012,05,01,02,41,6.90
2012,05,01,02,42,6.90
2012,05,01,02,43,6.90
2012,05,01,02,44,6.90
2012,05,01,02,45,6.90
2012,05,01,02,46,6.90
2012,05,01,02,47,6.90
2012,05,01,02,48,6.90
2012,05,01,02,49,6.80
2012,05,01,02,50,6.80
2012,05,01,02,51,6.80
2012,05,01,02,52,6.80
2012,05,01,02,53,6.80
2012,05,01,02,54,6.80
2012,05,01,02,55,6.80
2012,05,01,02,56,6.80
2012,05,01,02,57,6.80
2012,05,01,02,58,6.80
2012,05,01,02,59,6.80
2012,05,01,03,00,6.80
2012,05,01,03,01,6.80
2012,05,01,03,02,6.80
2012,05,01,03,03,6.80
2012,05,01,03,06,6.80
2012,05,01,03,07,6.80
2012,05,01,03,08,6.80
2012,05,01,03,09,6.80
2012,05,01,03,10,6.80
2012,05,01,03,11,6.80
2012,05,01,03,12,6.80
2012,05,01,03,13,6.70
2012,05,01,03,14,6.70
2012,05,01,03,15,6.70
2012,05,01,03,16,6.80
2012,05,01,03,17,6.80
2012,05,01,03,18,6.80
2012,05,01,03,19,6.70
2012,05,01,03,20,6.70
2012,05,01,03,21,6.70
2012,05,01,03,22,6.70
2012,05,01,03,23,6.70
2012,05,01,03,24,6.70
2012,05,01,03,25,6.70
2012,05,01,03,26,6.70
2012,05,01,03,27,6.70
2012,05,01,03,28,6.70
2012,05,01,03,29,6.70
2012,05,01,03,30,6.70
2012,05,01,03,31,6.70
2012,05,01,03,32,6.70
2012,05,01,03,33,6.70
2012,05,01,03,34,6.70
2012,05,01,03,35,6.70
2012,05,01,03,36,6.70
2012,05,01,03,37,6.70
2012,05,01,03,38,6.70
2012,05,01,03,39,6.70
2012,05,01,03,40,6.70
2012,05,01,03,41,6.70
2012,05,01,03,42,6.70
2012,05,01,03,43,6.70
2012,05,01,03,44,6.70
2012,05,01,03,45,6.70
2012,05,01,03,46,6.70
2012,05,01,03,47,6.70
2012,05,01,03,48,6.70
2012,05,01,03,49,6.70
2012,05,01,03,50,6.70
2012,05,01,03,51,6.70
2012,05,01,03,52,6.70
2012,05,01,03,53,6.60
2012,05,01,03,54,6.60
2012,05,01,03,55,6.60
2012,05,01,03,56,6.60
2012,05,01,03,57,6.60
2012,05,01,03,58,6.60
2012,05,01,03,59,6.60
2012,05,01,04,00,6.60
2012,05,01,04,01,6.60
2012,05,01,04,02,6.60
2012,05,01,04,03,6.60
2012,05,01,04,04,6.60
2012,05,01,04,05,6.60
2012,05,01,04,06,6.50
2012,05,01,04,07,6.50
2012,05,01,04,08,6.50
2012,05,01,04,09,6.50
2012,05,01,04,10,6.50
2012,05,01,04,11,6.50
2012,05,01,04,12,6.40
2012,05,01,04,13,6.40
2012,05,01,04,14,6.40
2012,05,01,04,15,6.40
2012,05,01,04,16,6.40
2012,05,01,04,17,6.40
2012,05,01,04,18,6.40
2012,05,01,04,19,6.40
2012,05,01,04,20,6.40
2012,05,01,04,21,6.40
2012,05,01,04,22,6.40
2012,05,01,04,23,6.40
2012,05,01,04,24,6.30
2012,05,01,04,25,6.30
2012,05,01,04,26,6.30
2012,05,01,04,27,6.40
2012,05,01,04,28,6.40
2012,05,01,04,29,6.40
2012,05,01,04,30,6.40
2012,05,01,04,31,6.40
2012,05,01,04,32,6.40
2012,05,01,04,33,6.40
2012,05,01,04,34,6.40
2012,05,01,04,35,6.40
2012,05,01,04,36,6.40
2012,05,01,04,37,6.40
2012,05,01,04,38,6.40
2012,05,01,04,39,6.40
2012,05,01,04,40,6.40
2012,05,01,04,41,6.30
2012,05,01,04,42,6.30
2012,05,01,04,43,6.30
2012,05,01,04,44,6.30
2012,05,01,04,45,6.30
2012,05,01,04,46,6.30
2012,05,01,04,47,6.30
2012,05,01,04,48,6.30
2012,05,01,04,49,6.20
2012,05,01,04,50,6.20
2012,05,01,04,51,6.20
2012,05,01,04,52,6.20
2012,05,01,04,53,6.20
2012,05,01,04,54,6.20
2012,05,01,04,55,6.20
2012,05,01,04,56,6.20
2012,05,01,04,57,6.20
2012,05,01,04,58,6.20
2012,05,01,04,59,6.10
2012,05,01,05,00,6.10
2012,05,01,05,01,6.10
2012,05,01,05,02,6.10
2012,05,01,05,03,6.10
2012,05,01,05,04,6.10
2012,05,01,05,05,6.10
2012,05,01,05,06,6.10
2012,05,01,05,07,6.10
2012,05,01,05,08,6.10
2012,05,01,05,09,6.10
2012,05,01,05,10,6.10
2012,05,01,05,11,6.10
2012,05,01,05,12,6.10
2012,05,01,05,13,6.10
2012,05,01,05,14,6.10
2012,05,01,05,15,6.10
2012,05,01,05,16,6.10
2012,05,01,05,17,6.10
2012,05,01,05,18,6.10
2012,05,01,05,19,6.10
2012,05,01,05,20,6.00
2012,05,01,05,21,6.00
2012,05,01,05,22,6.00
2012,05,01,05,23,6.00
2012,05,01,05,24,6.00
2012,05,01,05,25,6.00
2012,05,01,05,26,6.00
2012,05,01,05,27,6.00
2012,05,01,05,28,5.90
2012,05,01,05,29,5.90
2012,05,01,05,30,5.90
2012,05,01,05,31,5.90
2012,05,01,05,32,5.90
2012,05,01,05,33,5.90
2012,05,01,05,34,5.80
2012,05,01,05,35,5.80
2012,05,01,05,36,5.80
2012,05,01,05,37,5.80
2012,05,01,05,38,5.80
2012,05,01,05,39,5.80
2012,05,01,05,40,5.80
2012,05,01,05,41,5.70
2012,05,01,05,42,5.70
2012,05,01,05,43,5.70
2012,05,01,05,44,5.70
2012,05,01,05,45,5.70
2012,05,01,05,46,5.70
2012,05,01,05,47,5.70
2012,05,01,05,48,5.70
2012,05,01,05,49,5.60
2012,05,01,05,50,5.60
2012,05,01,05,51,5.60
2012,05,01,05,52,5.60
2012,05,01,05,53,5.60
2012,05,01,05,54,5.60
2012,05,01,05,55,5.50
2012,05,01,05,56,5.50
2012,05,01,05,57,5.50
2012,05,01,05,58,5.50
2012,05,01,05,59,5.50
2012,05,01,06,00,5.50
2012,05,01,06,01,5.40
2012,05,01,06,02,5.40
2012,05,01,06,03,5.40
2012,05,01,06,04,5.40
2012,05,01,06,05,5.40
2012,05,01,06,06,5.40
2012,05,01,06,07,5.40
2012,05,01,06,08,5.30
2012,05,01,06,09,5.30
2012,05,01,06,10,5.30
2012,05,01,06,11,5.30
2012,05,01,06,12,5.30
2012,05,01,06,13,5.30
2012,05,01,06,14,5.30
2012,05,01,06,15,5.30
2012,05,01,06,16,5.30
2012,05,01,06,17,5.30
2012,05,01,06,18,5.30
2012,05,01,06,19,5.30
2012,05,01,06,20,5.30
2012,05,01,06,21,5.30
2012,05,01,06,22,5.30
2012,05,01,06,23,5.30
2012,05,01,06,24,5.30
2012,05,01,06,25,5.30
2012,05,01,06,26,5.30
2012,05,01,06,27,5.30
2012,05,01,06,28,5.30
2012,05,01,06,29,5.30
2012,05,01,06,30,5.30
2012,05,01,06,31,5.30
2012,05,01,06,32,5.30
2012,05,01,06,33,5.30
2012,05,01,06,34,5.30
2012,05,01,06,35,5.30
2012,05,01,06,36,5.30
2012,05,01,06,37,5.30
2012,05,01,06,38,5.30
2012,05,01,06,39,5.30
2012,05,01,06,40,5.30
2012,05,01,06,41,5.30
2012,05,01,06,42,5.30
2012,05,01,06,43,5.30
2012,05,01,06,44,5.30
2012,05,01,06,45,5.30
2012,05,01,06,46,5.30
2012,05,01,06,47,5.30
2012,05,01,06,48,5.30
2012,05,01,06,49,5.30
2012,05,01,06,50,5.30
2012,05,01,06,51,5.30
2012,05,01,06,52,5.30
2012,05,01,06,53,5.30
2012,05,01,06,54,5.30
2012,05,01,06,55,5.20
2012,05,01,06,56,5.20
2012,05,01,06,57,5.30
2012,05,01,06,58,5.20
2012,05,01,06,59,5.20
2012,05,01,07,00,5.20
2012,05,01,07,01,5.20
2012,05,01,07,02,5.20
2012,05,01,07,03,5.20
2012,05,01,07,04,5.20
2012,05,01,07,05,5.20
2012,05,01,07,06,5.20
2012,05,01,07,07,5.20
2012,05,01,07,08,5.20
2012,05,01,07,09,5.30
2012,05,01,07,10,5.30
2012,05,01,07,11,5.30
2012,05,01,07,12,5.30
2012,05,01,07,13,5.30
2012,05,01,07,14,5.30
2012,05,01,07,15,5.30
2012,05,01,07,16,5.30
2012,05,01,07,17,5.30
2012,05,01,07,18,5.30
2012,05,01,07,19,5.30
2012,05,01,07,20,5.30
2012,05,01,07,21,5.30
2012,05,01,07,22,5.30
2012,05,01,07,23,5.30
2012,05,01,07,24,5.30
2012,05,01,07,25,5.30
2012,05,01,07,26,5.30
2012,05,01,07,27,5.30
2012,05,01,07,28,5.40
2012,05,01,07,29,5.40
2012,05,01,07,30,5.40
2012,05,01,07,31,5.40
2012,05,01,07,32,5.40
2012,05,01,07,33,5.40
2012,05,01,07,34,5.40
2012,05,01,07,35,5.50
2012,05,01,07,36,5.50
2012,05,01,07,37,5.50
2012,05,01,07,38,5.50
2012,05,01,07,39,5.50
2012,05,01,07,40,5.50
2012,05,01,07,41,5.50
2012,05,01,07,42,5.60
2012,05,01,07,43,5.60
2012,05,01,07,44,5.60
2012,05,01,07,45,5.60
2012,05,01,07,46,5.60
2012,05,01,07,47,5.70
2012,05,01,07,48,5.70
2012,05,01,07,49,5.70
2012,05,01,07,50,5.70
2012,05,01,07,51,5.80
2012,05,01,07,52,5.80
2012,05,01,07,53,5.90
2012,05,01,07,54,5.90
2012,05,01,07,55,6.00
2012,05,01,07,56,6.00
2012,05,01,07,57,6.10
2012,05,01,07,58,6.20
2012,05,01,07,59,6.20
2012,05,01,08,00,6.20
2012,05,01,08,01,6.30
2012,05,01,08,02,6.30
2012,05,01,08,03,6.30
2012,05,01,08,04,6.40
2012,05,01,08,05,6.40
2012,05,01,08,06,6.40
2012,05,01,08,07,6.50
2012,05,01,08,08,6.50
2012,05,01,08,09,6.50
2012,05,01,08,10,6.60
2012,05,01,08,11,6.60
2012,05,01,08,12,6.60
2012,05,01,08,13,6.70
2012,05,01,08,14,6.70
2012,05,01,08,15,6.70
2012,05,01,08,16,6.80
2012,05,01,08,17,6.80
2012,05,01,08,18,6.90
2012,05,01,08,19,6.90
2012,05,01,08,20,7.00
2012,05,01,08,21,7.00
2012,05,01,08,22,7.10
2012,05,01,08,23,7.10
2012,05,01,08,24,7.20
2012,05,01,08,25,7.20
2012,05,01,08,26,7.20
2012,05,01,08,27,7.20
2012,05,01,08,28,7.20
2012,05,01,08,29,7.20
2012,05,01,08,30,7.20
2012,05,01,08,31,7.20
2012,05,01,08,32,7.20
2012,05,01,08,33,7.20
2012,05,01,08,34,7.30
2012,05,01,08,35,7.30
2012,05,01,08,36,7.40
2012,05,01,08,37,7.50
2012,05,01,08,38,7.50
2012,05,01,08,39,7.50
2012,05,01,08,40,7.50
2012,05,01,08,41,7.60
2012,05,01,08,42,7.60
2012,05,01,08,43,7.60
2012,05,01,08,44,7.50
2012,05,01,08,45,7.40
2012,05,01,08,46,7.40
2012,05,01,08,47,7.40
2012,05,01,08,48,7.40
2012,05,01,08,49,7.30
2012,05,01,08,50,7.30
2012,05,01,08,51,7.20
2012,05,01,08,52,7.20
2012,05,01,08,53,7.20
2012,05,01,08,54,7.20
2012,05,01,08,55,7.20
2012,05,01,08,56,7.20
2012,05,01,08,57,7.20
2012,05,01,08,58,7.20
2012,05,01,08,59,7.20
2012,05,01,09,00,7.20
2012,05,01,09,01,7.20
2012,05,01,09,02,7.20
2012,05,01,09,03,7.20
2012,05,01,09,04,7.20
2012,05,01,09,05,7.20
2012,05,01,09,06,7.20
2012,05,01,09,07,7.20
2012,05,01,09,08,7.20
2012,05,01,09,09,7.20
2012,05,01,09,10,7.20
2012,05,01,09,11,7.20
2012,05,01,09,12,7.30
2012,05,01,09,13,7.30
2012,05,01,09,14,7.30
2012,05,01,09,15,7.30
2012,05,01,09,16,7.30
2012,05,01,09,17,7.40
2012,05,01,09,18,7.40
2012,05,01,09,19,7.40
2012,05,01,09,20,7.40
2012,05,01,09,21,7.40
2012,05,01,09,22,7.40
2012,05,01,09,23,7.40
2012,05,01,09,24,7.30
2012,05,01,09,25,7.30
2012,05,01,09,26,7.30
2012,05,01,09,27,7.30
2012,05,01,09,28,7.30
2012,05,01,09,29,7.30
2012,05,01,09,30,7.30
2012,05,01,09,31,7.30
2012,05,01,09,32,7.30
2012,05,01,09,33,7.30
2012,05,01,09,34,7.30
2012,05,01,09,35,7.30
2012,05,01,09,36,7.30
2012,05,01,09,37,7.40
2012,05,01,09,38,7.40
2012,05,01,09,39,7.40
2012,05,01,09,40,7.40
2012,05,01,09,41,7.40
2012,05,01,09,42,7.40
2012,05,01,09,43,7.50
2012,05,01,09,44,7.50
2012,05,01,09,45,7.60
2012,05,01,09,46,7.60
2012,05,01,09,47,7.70
2012,05,01,09,48,7.80
2012,05,01,09,49,7.80
2012,05,01,09,50,7.90
2012,05,01,09,51,7.90
2012,05,01,09,52,8.00
2012,05,01,09,53,8.00
2012,05,01,09,54,8.10
2012,05,01,09,55,8.20
2012,05,01,09,56,8.30
2012,05,01,09,57,8.30
2012,05,01,09,58,8.40
2012,05,01,09,59,8.50
2012,05,01,10,00,8.60
2012,05,01,10,01,8.70
2012,05,01,10,02,8.70
2012,05,01,10,03,8.80
2012,05,01,10,04,8.80
2012,05,01,10,05,8.90
2012,05,01,10,06,9.00
2012,05,01,10,07,9.00
2012,05,01,10,08,9.10
2012,05,01,10,09,9.10
2012,05,01,10,10,9.20
2012,05,01,10,11,9.20
2012,05,01,10,12,9.30
2012,05,01,10,13,9.40
2012,05,01,10,14,9.50
2012,05,01,10,15,9.50
2012,05,01,10,16,9.60
2012,05,01,10,17,9.60
2012,05,01,10,18,9.70
2012,05,01,10,19,9.80
2012,05,01,10,20,9.80
2012,05,01,10,21,9.80
2012,05,01,10,22,9.80
2012,05,01,10,23,9.80
2012,05,01,10,24,9.90
2012,05,01,10,25,9.90
2012,05,01,10,26,9.80
2012,05,01,10,27,9.80
2012,05,01,10,28,9.80
2012,05,01,10,29,9.80
2012,05,01,10,30,9.80
2012,05,01,10,31,9.80
2012,05,01,10,32,9.80
2012,05,01,10,33,9.70
2012,05,01,10,34,9.60
2012,05,01,10,35,9.60
2012,05,01,10,36,9.60
2012,05,01,10,37,9.50
2012,05,01,10,38,9.40
2012,05,01,10,39,9.40
2012,05,01,10,40,9.30
2012,05,01,10,41,9.30
2012,05,01,10,42,9.10
2012,05,01,10,43,9.10
2012,05,01,10,44,9.10
2012,05,01,10,45,9.10
2012,05,01,10,46,9.10
2012,05,01,10,47,9.00
2012,05,01,10,48,9.00
2012,05,01,10,49,8.90
2012,05,01,10,50,8.90
2012,05,01,10,51,8.90
2012,05,01,10,52,8.90
2012,05,01,10,53,8.90
2012,05,01,10,54,8.90
2012,05,01,10,55,8.90
2012,05,01,10,56,8.90
2012,05,01,10,57,8.90
2012,05,01,10,58,8.80
2012,05,01,10,59,8.80
2012,05,01,11,00,8.70
2012,05,01,11,01,8.60
2012,05,01,11,02,8.50
2012,05,01,11,03,8.50
2012,05,01,11,04,8.40
2012,05,01,11,05,8.40
2012,05,01,11,06,8.40
2012,05,01,11,07,8.40
2012,05,01,11,08,8.40
2012,05,01,11,09,8.40
2012,05,01,11,10,8.50
2012,05,01,11,11,8.50
2012,05,01,11,12,8.40
2012,05,01,11,13,8.40
2012,05,01,11,14,8.40
2012,05,01,11,15,8.40
2012,05,01,11,16,8.40
2012,05,01,11,17,8.40
2012,05,01,11,18,8.40
2012,05,01,11,19,8.40
2012,05,01,11,20,8.50
2012,05,01,11,21,8.60
2012,05,01,11,22,8.60
2012,05,01,11,23,8.70
2012,05,01,11,24,8.80
2012,05,01,11,25,8.90
2012,05,01,11,26,9.00
2012,05,01,11,27,9.10
2012,05,01,11,28,9.10
2012,05,01,11,29,9.20
2012,05,01,11,30,9.20
2012,05,01,11,31,9.20
2012,05,01,11,32,9.20
2012,05,01,11,33,9.20
2012,05,01,11,34,9.20
2012,05,01,11,35,9.20
2012,05,01,11,36,9.20
2012,05,01,11,37,9.20
2012,05,01,11,38,9.20
2012,05,01,11,39,9.20
2012,05,01,11,40,9.20
2012,05,01,11,41,9.20
2012,05,01,11,42,9.20
2012,05,01,11,43,9.20
2012,05,01,11,44,9.30
2012,05,01,11,45,9.30
2012,05,01,11,46,9.30
2012,05,01,11,47,9.40
2012,05,01,11,48,9.40
2012,05,01,11,49,9.50
2012,05,01,11,50,9.60
2012,05,01,11,51,9.60
2012,05,01,11,52,9.70
2012,05,01,11,53,9.70
2012,05,01,11,54,9.80
2012,05,01,11,55,9.80
2012,05,01,11,56,9.80
2012,05,01,11,57,9.90
2012,05,01,11,58,9.90
2012,05,01,11,59,10.00
2012,05,01,12,00,10.00
2012,05,01,12,01,10.10
2012,05,01,12,02,10.20
2012,05,01,12,03,10.20
2012,05,01,12,04,10.10
2012,05,01,12,05,10.10
2012,05,01,12,06,10.10
2012,05,01,12,07,10.10
2012,05,01,12,08,10.10
2012,05,01,12,09,10.10
2012,05,01,12,10,10.10
2012,05,01,12,11,10.10
2012,05,01,12,12,10.10
2012,05,01,12,13,10.00
2012,05,01,12,14,10.00
2012,05,01,12,15,10.10
2012,05,01,12,16,10.10
2012,05,01,12,17,10.10
2012,05,01,12,18,10.10
2012,05,01,12,19,10.00
2012,05,01,12,20,10.10
2012,05,01,12,21,10.10
2012,05,01,12,22,10.10
2012,05,01,12,23,10.00
2012,05,01,12,24,9.90
2012,05,01,12,25,9.80
2012,05,01,12,26,9.80
2012,05,01,12,27,9.80
2012,05,01,12,28,9.80
2012,05,01,12,29,9.80
2012,05,01,12,30,9.80
2012,05,01,12,31,9.90
2012,05,01,12,32,9.90
2012,05,01,12,33,10.00
2012,05,01,12,34,10.10
2012,05,01,12,35,10.00
2012,05,01,12,36,10.00
2012,05,01,12,37,9.90
2012,05,01,12,38,9.90
2012,05,01,12,39,10.00
2012,05,01,12,40,10.00
2012,05,01,12,41,10.00
2012,05,01,12,42,9.90
2012,05,01,12,43,9.90
2012,05,01,12,44,9.80
2012,05,01,12,45,9.80
2012,05,01,12,46,9.80
2012,05,01,12,47,9.80
2012,05,01,12,48,9.90
2012,05,01,12,49,9.90
2012,05,01,12,50,9.80
2012,05,01,12,51,9.80
2012,05,01,12,52,9.90
2012,05,01,12,53,9.90
2012,05,01,12,54,9.80
2012,05,01,12,55,9.80
2012,05,01,12,56,9.70
2012,05,01,12,57,9.70
2012,05,01,12,58,9.70
2012,05,01,12,59,9.80
2012,05,01,13,00,9.80
2012,05,01,13,01,9.90
2012,05,01,13,02,10.00
2012,05,01,13,03,10.00
2012,05,01,13,04,10.00
2012,05,01,13,05,10.10
2012,05,01,13,06,10.10
2012,05,01,13,07,10.00
2012,05,01,13,08,10.00
2012,05,01,13,09,10.10
2012,05,01,13,10,10.10
2012,05,01,13,11,10.10
2012,05,01,13,12,10.10
2012,05,01,13,13,10.10
2012,05,01,13,14,10.10
2012,05,01,13,15,10.10
2012,05,01,13,16,10.00
2012,05,01,13,17,9.90
2012,05,01,13,18,9.90
2012,05,01,13,19,9.90
2012,05,01,13,20,9.80
2012,05,01,13,21,9.80
2012,05,01,13,22,9.80
2012,05,01,13,23,9.80
2012,05,01,13,24,9.80
2012,05,01,13,25,9.80
2012,05,01,13,26,9.80
2012,05,01,13,27,9.80
2012,05,01,13,28,9.80
2012,05,01,13,29,9.70
2012,05,01,13,30,9.70
2012,05,01,13,31,9.60
2012,05,01,13,32,9.60
2012,05,01,13,33,9.50
2012,05,01,13,34,9.40
2012,05,01,13,35,9.30
2012,05,01,13,36,9.30
2012,05,01,13,37,9.30
2012,05,01,13,38,9.20
2012,05,01,13,39,9.20
2012,05,01,13,40,9.10
2012,05,01,13,41,9.10
2012,05,01,13,42,9.00
2012,05,01,13,43,9.00
2012,05,01,13,44,8.90
2012,05,01,13,45,8.80
2012,05,01,13,46,8.80
2012,05,01,13,47,8.80
2012,05,01,13,48,8.70
2012,05,01,13,49,8.50
2012,05,01,13,50,8.50
2012,05,01,13,51,8.50
2012,05,01,13,52,8.60
2012,05,01,13,53,8.60
2012,05,01,13,54,8.60
2012,05,01,13,55,8.60
2012,05,01,13,56,8.60
2012,05,01,13,57,8.70
2012,05,01,13,58,8.60
2012,05,01,13,59,8.60
2012,05,01,14,00,8.60
2012,05,01,14,01,8.60
2012,05,01,14,02,8.70
2012,05,01,14,03,8.70
2012,05,01,14,04,8.70
2012,05,01,14,05,8.80
2012,05,01,14,06,9.00
2012,05,01,14,07,9.10
2012,05,01,14,08,9.20
2012,05,01,14,09,9.20
2012,05,01,14,10,9.30
2012,05,01,14,11,9.30
2012,05,01,14,12,9.30
2012,05,01,14,13,9.30
2012,05,01,14,14,9.30
2012,05,01,14,15,9.40
2012,05,01,14,16,9.40
2012,05,01,14,17,9.50
2012,05,01,14,18,9.60
2012,05,01,14,19,9.70
2012,05,01,14,20,9.80
2012,05,01,14,21,9.90
2012,05,01,14,22,9.90
2012,05,01,14,23,10.00
2012,05,01,14,24,10.10
2012,05,01,14,25,10.10
2012,05,01,14,26,10.10
2012,05,01,14,27,10.00
2012,05,01,14,28,10.00
2012,05,01,14,29,9.90
2012,05,01,14,30,9.80
2012,05,01,14,31,9.80
2012,05,01,14,32,9.80
2012,05,01,14,33,9.80
2012,05,01,14,34,9.80
2012,05,01,14,35,9.80
2012,05,01,14,36,9.70
2012,05,01,14,37,9.70
2012,05,01,14,38,9.60
2012,05,01,14,39,9.60
2012,05,01,14,40,9.50
2012,05,01,14,41,9.50
2012,05,01,14,42,9.40
2012,05,01,14,43,9.30
2012,05,01,14,44,9.20
2012,05,01,14,45,9.20
2012,05,01,14,46,9.10
2012,05,01,14,47,9.10
2012,05,01,14,48,9.10
2012,05,01,14,49,9.10
2012,05,01,14,50,9.10
2012,05,01,14,51,9.10
2012,05,01,14,52,9.10
2012,05,01,14,53,9.00
2012,05,01,14,54,9.00
2012,05,01,14,55,8.90
2012,05,01,14,56,9.00
2012,05,01,14,57,9.00
2012,05,01,14,58,9.00
2012,05,01,14,59,9.00
2012,05,01,15,00,9.00
2012,05,01,15,01,9.00
2012,05,01,15,02,9.00
2012,05,01,15,03,9.00
2012,05,01,15,04,9.00
2012,05,01,15,05,9.00
2012,05,01,15,06,9.00
2012,05,01,15,07,9.10
2012,05,01,15,08,9.10
2012,05,01,15,09,9.10
2012,05,01,15,10,9.10
2012,05,01,15,11,9.20
2012,05,01,15,12,9.20
2012,05,01,15,13,9.30
2012,05,01,15,14,9.30
2012,05,01,15,15,9.40
2012,05,01,15,16,9.40
2012,05,01,15,17,9.40
2012,05,01,15,18,9.40
2012,05,01,15,19,9.40
2012,05,01,15,20,9.40
2012,05,01,15,21,9.40
2012,05,01,15,22,9.40
2012,05,01,15,23,9.40
2012,05,01,15,24,9.50
2012,05,01,15,25,9.50
2012,05,01,15,26,9.40
2012,05,01,15,27,9.40
2012,05,01,15,28,9.40
2012,05,01,15,29,9.40
2012,05,01,15,30,9.40
2012,05,01,15,31,9.40
2012,05,01,15,32,9.40
2012,05,01,15,33,9.50
2012,05,01,15,34,9.50
2012,05,01,15,35,9.50
2012,05,01,15,36,9.60
2012,05,01,15,37,9.60
2012,05,01,15,38,9.60
2012,05,01,15,39,9.60
2012,05,01,15,40,9.60
2012,05,01,15,41,9.50
2012,05,01,15,42,9.50
2012,05,01,15,43,9.40
2012,05,01,15,44,9.40
2012,05,01,15,45,9.30
2012,05,01,15,46,9.30
2012,05,01,15,47,9.30
2012,05,01,15,48,9.30
2012,05,01,15,49,9.30
2012,05,01,15,50,9.30
2012,05,01,15,51,9.30
2012,05,01,15,52,9.20
2012,05,01,15,53,9.20
2012,05,01,15,54,9.20
2012,05,01,15,55,9.30
2012,05,01,15,56,9.30
2012,05,01,15,57,9.30
2012,05,01,15,58,9.30
2012,05,01,15,59,9.30
2012,05,01,16,00,9.40
2012,05,01,16,01,9.50
2012,05,01,16,02,9.50
2012,05,01,16,03,9.60
2012,05,01,16,04,9.60
2012,05,01,16,05,9.60
2012,05,01,16,06,9.60
2012,05,01,16,07,9.70
2012,05,01,16,08,9.60
2012,05,01,16,09,9.60
2012,05,01,16,10,9.70
2012,05,01,16,11,9.70
2012,05,01,16,12,9.70
2012,05,01,16,13,9.80
2012,05,01,16,14,9.80
2012,05,01,16,15,9.80
2012,05,01,16,16,9.90
2012,05,01,16,17,9.90
2012,05,01,16,18,9.90
2012,05,01,16,19,9.90
2012,05,01,16,20,9.80
2012,05,01,16,21,9.80
2012,05,01,16,22,9.80
2012,05,01,16,23,9.70
2012,05,01,16,24,9.60
2012,05,01,16,25,9.60
2012,05,01,16,26,9.60
2012,05,01,16,27,9.60
2012,05,01,16,28,9.60
2012,05,01,16,29,9.60
2012,05,01,16,30,9.60
2012,05,01,16,31,9.50
2012,05,01,16,32,9.50
2012,05,01,16,33,9.50
2012,05,01,16,34,9.50
2012,05,01,16,35,9.50
2012,05,01,16,36,9.50
2012,05,01,16,37,9.50
2012,05,01,16,38,9.60
2012,05,01,16,39,9.60
2012,05,01,16,40,9.60
2012,05,01,16,41,9.60
2012,05,01,16,42,9.60
2012,05,01,16,43,9.70
2012,05,01,16,44,9.70
2012,05,01,16,45,9.70
2012,05,01,16,46,9.70
2012,05,01,16,47,9.70
2012,05,01,16,48,9.70
2012,05,01,16,49,9.70
2012,05,01,16,50,9.70
2012,05,01,16,51,9.70
2012,05,01,16,52,9.70
2012,05,01,16,53,9.80
2012,05,01,16,54,9.80
2012,05,01,16,55,9.90
2012,05,01,16,56,9.90
2012,05,01,16,57,9.90
2012,05,01,16,58,9.90
2012,05,01,16,59,9.90
2012,05,01,17,00,9.90
2012,05,01,17,01,9.90
2012,05,01,17,02,9.90
2012,05,01,17,03,9.90
2012,05,01,17,04,9.80
2012,05,01,17,05,9.80
2012,05,01,17,06,9.70
2012,05,01,17,07,9.70
2012,05,01,17,08,9.60
2012,05,01,17,09,9.60
2012,05,01,17,10,9.60
2012,05,01,17,11,9.60
2012,05,01,17,12,9.60
2012,05,01,17,13,9.60
2012,05,01,17,14,9.60
2012,05,01,17,15,9.60
2012,05,01,17,16,9.60
2012,05,01,17,17,9.60
2012,05,01,17,18,9.60
2012,05,01,17,19,9.60
2012,05,01,17,20,9.60
2012,05,01,17,21,9.60
2012,05,01,17,22,9.70
2012,05,01,17,23,9.70
2012,05,01,17,24,9.70
2012,05,01,17,25,9.70
2012,05,01,17,26,9.60
2012,05,01,17,27,9.60
2012,05,01,17,28,9.60
2012,05,01,17,29,9.60
2012,05,01,17,30,9.70
2012,05,01,17,31,9.70
2012,05,01,17,32,9.70
2012,05,01,17,33,9.70
2012,05,01,17,34,9.60
2012,05,01,17,35,9.60
2012,05,01,17,36,9.50
2012,05,01,17,37,9.50
2012,05,01,17,38,9.50
2012,05,01,17,39,9.40
2012,05,01,17,40,9.40
2012,05,01,17,41,9.40
2012,05,01,17,42,9.40
2012,05,01,17,43,9.40
2012,05,01,17,44,9.40
2012,05,01,17,45,9.50
2012,05,01,17,46,9.50
2012,05,01,17,47,9.50
2012,05,01,17,48,9.60
2012,05,01,17,49,9.60
2012,05,01,17,50,9.60
2012,05,01,17,51,9.60
2012,05,01,17,52,9.70
2012,05,01,17,53,9.60
2012,05,01,17,54,9.60
2012,05,01,17,55,9.60
2012,05,01,17,56,9.60
2012,05,01,17,57,9.60
2012,05,01,17,58,9.60
2012,05,01,17,59,9.50
2012,05,01,18,00,9.50
2012,05,01,18,01,9.50
2012,05,01,18,02,9.40
2012,05,01,18,03,9.40
2012,05,01,18,04,9.40
2012,05,01,18,05,9.40
2012,05,01,18,06,9.30